Flag for Gibraltar Weather past 2 weeks in Gibraltar, Gibraltar

Now
72 °F

Sleet. Haze.


Feels Like: 69 °F
Forecast: 72 / 82 °F
Wind: 6 mph from East

Location: Gibraltar Airport

Current Time: Jul 4, 2015 at 10:57:11 AM

Latest Report: Jul 4, 2015 at 9:50 AM


Visibility: 4 mi

Pressure: 30.12 "Hg

Humidity: 88%

Dew point: 68 °F

Location of GibraltarLocation

Historic Weather in Gibraltar — Graph

°F

Gibraltar temperature yesterday

Maximum temperature yesterday: 79 °F (at 4:50 PM)
Minimum temperature yesterday: 68 °F (at 4:50 AM)
Average temperature yesterday: 74 °F

Past Weeks' High & Low Weather Summary

 TemperatureHumidityPressure
High84 °F (Jun 30, 4:50 PM)100% (Jun 20, 1:50 AM)30.18 "Hg (Jun 20, 1:50 AM)
Low64 °F (Jun 20, 8:50 AM)21% (Jun 27, 7:50 PM)29.95 "Hg (Jun 23, 4:50 AM)
Average73 °F71%30.05 "Hg
* Reported Jun 19 9:50 AM — Jul 4 9:50 AM, Gibraltar, Weather by CustomWeather, © 2015

Note: Actual official high and low records may vary slightly from our data, if they occured in-between our weather recording intervals... More about our weather records

Advertising

Gibraltar weather history for previous 24 hours

 ConditionsComfort  
Time TempWeatherWind HumidityBarometerVisibility
9:50 AM
Sat, Jul 4
72 °FSleet. Haze.6 mph88%30.12 "Hg4 mi
8:50 AM72 °FSleet. Fog.5 mph88%30.09 "Hg4 mi
7:50 AM73 °FSleet. Fog.7 mph89%30.09 "Hg4 mi
6:50 AM73 °FFog.8 mph89%30.09 "Hg2 mi
5:50 AM72 °FLow clouds.7 mph100%30.09 "Hg4 mi
4:50 AM72 °FLow clouds.5 mph94%30.09 "Hg3 mi
3:50 AM72 °FPartly cloudy.5 mph94%30.09 "Hg4 mi
2:50 AM72 °FPassing clouds.6 mph94%30.09 "Hg3 mi
1:50 AM72 °FPassing clouds.5 mph94%30.12 "Hg4 mi
12:50 AM73 °FClear.6 mph89%30.09 "Hg4 mi
11:50 PM
Fri, Jul 3
73 °FClear.8 mph94%30.12 "Hg5 mi
10:50 PM73 °FPassing clouds.9 mph94%30.09 "Hg5 mi
9:50 PM73 °FHaze.7 mph94%30.09 "Hg4 mi
8:50 PM75 °FHaze.7 mph89%30.09 "Hg4 mi
7:50 PM75 °FHaze.7 mph83%30.07 "Hg4 mi
6:50 PM77 °FHaze.9 mph79%30.07 "Hg5 mi
5:50 PM79 °FHaze.10 mph74%30.07 "Hg5 mi
4:50 PM79 °FPassing clouds.13 mph74%30.07 "HgN/A
3:50 PM77 °FPassing clouds.10 mph79%30.09 "HgN/A
2:50 PM77 °FPassing clouds.9 mph79%30.09 "HgN/A
1:50 PM77 °FScattered clouds.10 mph79%30.09 "HgN/A
12:50 PM75 °FPassing clouds.8 mph78%30.09 "HgN/A
11:50 AM75 °FPassing clouds.8 mph74%30.09 "HgN/A
10:50 AM73 °FPartly sunny.7 mph74%30.09 "HgN/A
Weather by CustomWeather, © 2015

See weather overviewHow to use our weather pages